| time (UTC) | temp F | wind direction | speed MPH | gust MPH | rain 1hr in | rain 24hr in | rain mn in | humidity % | barometer mb |
| 20260507023053 | 64 | 0 | 0.0 | 3.0 | 0.00 | 0.00 | 0.00 | 81 | 1012.5 |
| 20260507021559 | 64 | 0 | 0.0 | 4.0 | 0.00 | 0.00 | 0.00 | 81 | 1012.5 |
| 20260507020109 | 65 | 0 | 0.0 | 3.0 | 0.00 | 0.00 | 0.00 | 80 | 1012.0 |
| 20260507014601 | 65 | 0 | 0.0 | 2.0 | 0.00 | 0.00 | 0.00 | 80 | 1011.8 |
| 20260507013057 | 66 | 0 | 0.0 | 3.0 | 0.00 | 0.00 | 0.00 | 80 | 1011.9 |
| 20260507011558 | 66 | 60 | 0.0 | 2.0 | 0.00 | 0.00 | 0.00 | 79 | 1011.4 |
| 20260507004605 | 67 | 0 | 0.0 | 4.0 | 0.00 | 0.00 | 0.00 | 77 | 1010.8 |
| 20260507003057 | 68 | 5 | 0.0 | 3.0 | 0.00 | 0.00 | 0.00 | 77 | 1010.5 |
| 20260507001555 | 69 | 95 | 0.0 | 2.0 | 0.00 | 0.00 | 0.00 | 76 | 1010.5 |
| 20260507000056 | 69 | 0 | 0.0 | 2.0 | 0.00 | 0.00 | 0.00 | 75 | 1010.2 |
| 20260506234553 | 70 | 75 | 0.0 | 3.0 | 0.00 | 0.00 | 0.00 | 75 | 1009.9 |
| 20260506233110 | 70 | 5 | 1.0 | 3.0 | 0.00 | 0.00 | 0.00 | 75 | 1009.9 |
| 20260506231600 | 71 | 339 | 0.0 | 3.0 | 0.00 | 0.00 | 0.00 | 74 | 1009.7 |
| 20260506230056 | 71 | 334 | 1.0 | 4.0 | 0.00 | 0.00 | 0.00 | 75 | 1009.8 |
| 20260506224555 | 72 | 38 | 0.0 | 3.0 | 0.00 | 0.00 | 0.00 | 74 | 1009.7 |
| 20260506223055 | 72 | 340 | 0.0 | 4.0 | 0.00 | 0.00 | 0.00 | 75 | 1009.7 |
| 20260506221558 | 72 | 311 | 0.0 | 4.0 | 0.00 | 0.00 | 0.00 | 75 | 1009.6 |
| 20260506220056 | 73 | 0 | 1.0 | 5.0 | 0.00 | 0.00 | 0.00 | 76 | 1009.4 |
| 20260506214556 | 73 | 355 | 0.0 | 3.0 | 0.00 | 0.00 | 0.00 | 75 | 1009.1 |
| 20260506213110 | 75 | 0 | 0.0 | 4.0 | 0.00 | 0.00 | 0.00 | 74 | 1009.2 |
| 20260506211555 | 76 | 313 | 0.0 | 3.0 | 0.00 | 0.00 | 0.00 | 75 | 1009.2 |
| 20260506210056 | 77 | 321 | 0.0 | 3.0 | 0.00 | 0.00 | 0.00 | 78 | 1008.9 |
| 20260506204556 | 78 | 337 | 0.0 | 1.0 | 0.00 | 0.00 | 0.00 | 77 | 1008.8 |
| 20260506203053 | 79 | 0 | 0.0 | 2.0 | 0.00 | 0.00 | 0.00 | 77 | 1009.1 |
| 20260506201554 | 78 | 0 | 0.0 | 2.0 | 0.00 | 0.00 | 0.00 | 78 | 1009.1 |
| 20260506200053 | 78 | 0 | 0.0 | 3.0 | 0.00 | 0.00 | 0.00 | 79 | 1009.0 |
| 20260506194553 | 77 | 69 | 0.0 | 2.0 | 0.00 | 0.00 | 0.00 | 79 | 1009.4 |
| 20260506193057 | 76 | 0 | 0.0 | 2.0 | 0.00 | 0.00 | 0.00 | 79 | 1009.2 |
| 20260506191553 | 75 | 0 | 0.0 | 4.0 | 0.00 | 0.00 | 0.00 | 79 | 1009.2 |
| 20260506190053 | 74 | 0 | 0.0 | 2.0 | 0.00 | 0.00 | 0.00 | 81 | 1009.1 |
| 20260506184555 | 72 | 0 | 0.0 | 4.0 | 0.00 | 0.00 | 0.00 | 82 | 1009.5 |
| 20260506183100 | 70 | 0 | 0.0 | 3.0 | 0.00 | 0.00 | 0.00 | 83 | 1009.8 |
| 20260506181621 | 68 | 0 | 1.0 | 5.0 | 0.00 | 0.00 | 0.00 | 84 | 1010.0 |
| 20260506180054 | 67 | 71 | 1.0 | 4.0 | 0.00 | 0.00 | 0.00 | 86 | 1010.1 |
| 20260506174552 | 66 | 67 | 1.0 | 3.0 | 0.00 | 0.00 | 0.00 | 86 | 1010.6 |
| 20260506173100 | 68 | 355 | 0.0 | 3.0 | 0.00 | 0.00 | 0.00 | 84 | 1011.0 |
| 20260506171552 | 71 | 13 | 0.0 | 3.0 | 0.00 | 0.00 | 0.00 | 82 | 1011.2 |
| 20260506170055 | 75 | 0 | 1.0 | 5.0 | 0.00 | 0.00 | 0.00 | 79 | 1011.2 |
| 20260506164600 | 78 | 0 | 0.0 | 1.0 | 0.00 | 0.00 | 0.00 | 87 | 1011.1 |
| 20260506163103 | 78 | 0 | 0.0 | 1.0 | 0.00 | 0.00 | 0.00 | 87 | 1011.0 |
| 20260506161557 | 78 | 0 | 0.0 | 1.0 | 0.00 | 0.00 | 0.00 | 87 | 1010.8 |
| 20260506160108 | 78 | 0 | 0.0 | 1.0 | 0.00 | 0.00 | 0.00 | 89 | 1010.3 |
| 20260506154601 | 77 | 0 | 0.0 | 1.0 | 0.00 | 0.00 | 0.00 | 89 | 1009.7 |
| 20260506153110 | 77 | 0 | 0.0 | 1.0 | 0.00 | 0.00 | 0.00 | 90 | 1009.7 |
| 20260506151555 | 77 | 0 | 0.0 | 2.0 | 0.00 | 0.00 | 0.00 | 90 | 1009.7 |
| 20260506150059 | 77 | 0 | 0.0 | 2.0 | 0.00 | 0.00 | 0.00 | 90 | 1009.8 |
| 20260506144558 | 76 | 0 | 0.0 | 1.0 | 0.00 | 0.00 | 0.00 | 91 | 1009.8 |
| 20260506143057 | 76 | 0 | 0.0 | 3.0 | 0.00 | 0.00 | 0.00 | 91 | 1009.8 |
| 20260506141555 | 76 | 0 | 0.0 | 3.0 | 0.00 | 0.00 | 0.00 | 92 | 1009.2 |
| 20260506140054 | 75 | 0 | 0.0 | 2.0 | 0.00 | 0.00 | 0.00 | 92 | 1009.1 |
| 20260506134553 | 75 | 82 | 0.0 | 2.0 | 0.00 | 0.00 | 0.00 | 92 | 1008.9 |
| 20260506133053 | 75 | 0 | 0.0 | 1.0 | 0.00 | 0.00 | 0.00 | 92 | 1009.0 |
| 20260506131556 | 75 | 0 | 0.0 | 1.0 | 0.00 | 0.00 | 0.00 | 92 | 1009.1 |
| 20260506130056 | 75 | 0 | 0.0 | 0.0 | 0.00 | 0.00 | 0.00 | 92 | 1009.2 |
| 20260506124556 | 75 | 0 | 0.0 | 1.0 | 0.00 | 0.00 | 0.00 | 92 | 1008.7 |
| 20260506123055 | 75 | 0 | 0.0 | 0.0 | 0.00 | 0.00 | 0.00 | 92 | 1008.7 |
| 20260506121553 | 75 | 0 | 0.0 | 1.0 | 0.00 | 0.00 | 0.00 | 91 | 1008.9 |
| 20260506120057 | 75 | 0 | 0.0 | 1.0 | 0.00 | 0.00 | 0.00 | 91 | 1008.7 |
| 20260506114555 | 75 | 0 | 0.0 | 0.0 | 0.00 | 0.00 | 0.00 | 91 | 1008.7 |
| 20260506113055 | 75 | 0 | 0.0 | 0.0 | 0.00 | 0.00 | 0.00 | 91 | 1008.3 |
| 20260506111554 | 75 | 0 | 0.0 | 1.0 | 0.00 | 0.00 | 0.00 | 91 | 1008.3 |
| 20260506110054 | 75 | 0 | 0.0 | 1.0 | 0.00 | 0.00 | 0.00 | 91 | 1008.1 |
| 20260506104558 | 75 | 0 | 0.0 | 0.0 | 0.00 | 0.00 | 0.00 | 91 | 1008.0 |
| 20260506103057 | 75 | 0 | 0.0 | 0.0 | 0.00 | 0.00 | 0.00 | 91 | 1007.9 |
| 20260506101553 | 75 | 0 | 0.0 | 0.0 | 0.00 | 0.00 | 0.00 | 91 | 1007.9 |
| 20260506100055 | 75 | 0 | 0.0 | 1.0 | 0.00 | 0.00 | 0.00 | 91 | 1007.5 |
| 20260506094553 | 75 | 0 | 0.0 | 1.0 | 0.00 | 0.00 | 0.00 | 91 | 1007.3 |
| 20260506093052 | 75 | 0 | 0.0 | 3.0 | 0.00 | 0.00 | 0.00 | 91 | 1007.3 |
| 20260506091558 | 75 | 0 | 0.0 | 2.0 | 0.00 | 0.00 | 0.00 | 91 | 1007.4 |
| 20260506090100 | 75 | 0 | 0.0 | 3.0 | 0.00 | 0.00 | 0.00 | 91 | 1007.2 |
| 20260506084558 | 75 | 0 | 0.0 | 2.0 | 0.00 | 0.00 | 0.00 | 91 | 1007.1 |
| 20260506083056 | 75 | 0 | 0.0 | 3.0 | 0.00 | 0.00 | 0.00 | 91 | 1007.2 |
| 20260506081557 | 75 | 260 | 0.0 | 2.0 | 0.00 | 0.00 | 0.00 | 91 | 1007.2 |
| 20260506080104 | 75 | 0 | 0.0 | 4.0 | 0.00 | 0.00 | 0.00 | 91 | 1007.1 |
| 20260506073055 | 75 | 0 | 0.0 | 4.0 | 0.00 | 0.00 | 0.00 | 91 | 1007.3 |
| 20260506071604 | 75 | 234 | 1.0 | 4.0 | 0.00 | 0.00 | 0.00 | 90 | 1007.3 |
| 20260506070104 | 75 | 0 | 0.0 | 4.0 | 0.00 | 0.00 | 0.00 | 90 | 1007.3 |
| 20260506061554 | 75 | 0 | 0.0 | 4.0 | 0.00 | 0.00 | 0.00 | 89 | 1008.1 |
| 20260506050107 | 76 | 114 | 0.0 | 3.0 | 0.00 | 0.00 | 0.00 | 87 | 1007.7 |
| 20260506044558 | 76 | 158 | 0.0 | 6.0 | 0.00 | 0.00 | 0.00 | 87 | 1007.8 |
| 20260506043053 | 76 | 73 | 0.0 | 5.0 | 0.00 | 0.00 | 0.00 | 86 | 1007.9 |
| 20260506041552 | 76 | 0 | 0.0 | 3.0 | 0.00 | 0.00 | 0.00 | 86 | 1007.7 |
| 20260506040055 | 77 | 0 | 0.0 | 4.0 | 0.00 | 0.00 | 0.00 | 85 | 1007.4 |
| 20260506034610 | 77 | 116 | 1.0 | 4.0 | 0.00 | 0.00 | 0.00 | 85 | 1007.3 |
| 20260506033054 | 77 | 0 | 1.0 | 4.0 | 0.00 | 0.00 | 0.00 | 85 | 1007.2 |
| 20260506031556 | 77 | 0 | 0.0 | 3.0 | 0.00 | 0.00 | 0.00 | 84 | 1007.2 |
| 20260506030056 | 77 | 154 | 1.0 | 3.0 | 0.00 | 0.00 | 0.00 | 84 | 1006.8 |
| 20260506024612 | 77 | 217 | 0.0 | 3.0 | 0.00 | 0.00 | 0.00 | 83 | 1006.5 |